Flag Weather past 2 weeks in Downey, California, U.S.A.

Now
73 °F

Sunny.


Feels Like: 77 °F
Forecast: 53 / 79 °F
Wind: 5 mph from South

Location: Long Beach Airport

Current Time: Nov 28, 2014 at 11:54:47 AM

Latest Report: Nov 28, 2014 at 10:53 AM


Visibility: 10 mi

Pressure: 29.98 "Hg

Humidity: 44%

Dew point: 50 °F

Location of DowneyLocation

Historic Weather in Downey — Graph

°F

Downey temperature yesterday

Maximum temperature yesterday: 90 °F (at 1:53 PM)
Minimum temperature yesterday: 52 °F (at 5:53 AM)
Average temperature yesterday: 67 °F

Past Weeks' High & Low Weather Summary

 TemperatureHumidityPressure
High90 °F (Nov 27, 1:53 PM)96% (Nov 14, 2:53 AM)30.39 "Hg (Nov 14, 2:53 AM)
Low50 °F (Nov 26, 6:53 AM)6% (Nov 16, 3:53 PM)29.92 "Hg (Nov 21, 4:53 AM)
Average64 °F53%30.09 "Hg
* Reported Nov 13 10:53 AM — Nov 28 10:53 AM, Downey, Weather by CustomWeather, © 2014

Note: Actual official high and low records may vary slightly from our data, if they occured in-between our weather recording intervals... More about our weather records

Advertising

Downey weather history for previous 24 hours

 ConditionsComfort  
Time TempWeatherWind HumidityBarometerVisibility
10:53 AM
Nov 28
73 °FSunny.5 mph44%29.98 "Hg10 mi
9:53 AM69 °FSunny.No wind57%30.00 "Hg10 mi
8:53 AM63 °FSunny.No wind40%30.00 "Hg10 mi
7:53 AM57 °FSunny.No wind49%29.99 "Hg10 mi
6:53 AM52 °FSunny.No wind64%29.98 "Hg10 mi
5:53 AM51 °FClear.No wind66%29.97 "Hg10 mi
4:53 AM52 °FPassing clouds.No wind69%29.97 "Hg10 mi
3:53 AM53 °FClear.No wind69%29.98 "Hg10 mi
2:53 AM53 °FClear.No wind72%29.98 "Hg10 mi
1:53 AM54 °FClear.No wind74%29.99 "Hg10 mi
12:53 AM56 °FClear.No wind70%29.99 "Hg10 mi
11:53 PM
Nov 27
56 °FClear.No wind70%30.00 "Hg10 mi
10:53 PM57 °FClear.No wind67%30.01 "Hg10 mi
9:53 PM60 °FClear.No wind58%30.01 "Hg10 mi
8:53 PM62 °FClear.No wind56%30.01 "Hg10 mi
7:53 PM63 °FClear.No wind50%30.01 "Hg10 mi
6:53 PM67 °FClear.5 mph42%30.01 "Hg10 mi
5:53 PM70 °FClear.5 mph31%30.00 "Hg10 mi
4:53 PM76 °FClear.8 mph19%29.99 "Hg10 mi
3:53 PM83 °FSunny.8 mph18%29.98 "Hg10 mi
2:53 PM82 °FSunny.7 mph19%29.99 "Hg10 mi
1:53 PM90 °FSunny.No wind9%29.99 "Hg10 mi
12:53 PM88 °FSunny.No wind9%30.02 "Hg9 mi
11:53 AM84 °FSunny.No wind13%30.05 "Hg10 mi
Weather by CustomWeather, © 2014

See weather overviewHow to use our weather pages